Hobart, OK

1:13 AM CDT on April 26, 2017 (GMT -0500)
Hobart Municipal

Weather History for KHBR - January, 2013

Change the Weather History Date:

Wednesday, January 30, 2013

  Actual Average Record
Temperature  
Mean Temperature 39 °F -  
Max Temperature 48 °F 48 °F 80 °F (2016)
Min Temperature 30 °F 28 °F 19 °F (1997)
Degree Days  
Heating Degree Days 26    
Moisture  
Dew Point 22 °F    
Average Humidity 54    
Maximum Humidity 75    
Minimum Humidity 22    
Precipitation  
Precipitation 0.00 in - - ()
Sea Level Pressure  
Sea Level Pressure 29.96 in    
Wind  
Wind Speed 18 mph (NW)    
Max Wind Speed 26 mph    
Max Gust Speed 33 mph    
Visibility 10 miles    
Events      
Averages and records for this station are not official NWS values.
T = Trace of Precipitation, MM = Missing Value Source: NWS Daily Summary

Daily Weather History Graph

Daily Weather History Graph

Search for Another Location

Airport or City:

Trip Planner

Search our weather history database for the weather conditions in past years. The results will help you decide how hot, cold, wet, or windy it might be!

Date:

Astronomy

Jan. 30, 2013 Rise Set
Actual Time 7:36 AM CST 6:03 PM CST
Civil Twilight 7:09 AM CST 6:30 PM CST
Nautical Twilight 6:39 AM CST 7:00 PM CST
Astronomical Twilight 6:09 AM CST 7:30 PM CST
Moon 9:51 PM CST (1/30) 9:15 AM CST (1/30)
Length of Visible Light 11h 20m
Length of Day
10h 27m
Waning Gibbous, 87% of the Moon is Illuminated
Jan 30
Waning Gibbous
Feb 3
Last Quarter
Feb 10
New
Feb 17
First Quarter
Feb 25
Full

Hourly Weather History & Observations

Time (CST) Temp. Windchill Dew Point Humidity Pressure Visibility Wind Dir Wind Speed Gust Speed Precip Events Conditions
12:18 AM 39.2 °F 29.3 °F 30.2 °F 70% 29.73 in 10.0 mi NNW 20.7 mph - N/A   Overcast
12:28 AM 39.2 °F 29.6 °F 30.2 °F 70% 29.74 in 10.0 mi NNW 19.6 mph - N/A   Overcast
12:45 AM 39.2 °F 30.5 °F 30.2 °F 70% 29.75 in 10.0 mi NNW 16.1 mph - N/A   Overcast
12:53 AM 39.0 °F 27.8 °F 30.0 °F 70% 29.74 in 10.0 mi NNW 26.5 mph 33.4 mph N/A   Overcast
1:10 AM 37.4 °F 28.2 °F 30.2 °F 75% 29.76 in 10.0 mi NNW 16.1 mph - N/A   Overcast
1:53 AM 37.0 °F 27.0 °F 28.9 °F 73% 29.78 in 10.0 mi NNW 18.4 mph - N/A   Mostly Cloudy
2:53 AM 37.9 °F 27.9 °F 28.9 °F 70% 29.80 in 10.0 mi NNW 19.6 mph - N/A   Overcast
3:53 AM 37.0 °F 26.7 °F 28.0 °F 70% 29.83 in 10.0 mi North 19.6 mph - N/A   Mostly Cloudy
4:53 AM 35.1 °F 24.1 °F 27.0 °F 72% 29.86 in 10.0 mi NNW 19.6 mph - N/A   Scattered Clouds
5:53 AM 36.0 °F 26.3 °F 27.0 °F 70% 29.90 in 10.0 mi NNW 16.1 mph - N/A   Overcast
6:53 AM 37.0 °F 25.1 °F 26.1 °F 65% 29.95 in 10.0 mi NW 26.5 mph 31.1 mph N/A   Overcast
7:53 AM 32.0 °F 20.1 °F 23.0 °F 69% 30.01 in 10.0 mi NW 19.6 mph - N/A   Scattered Clouds
8:53 AM 33.1 °F 20.1 °F 23.0 °F 66% 30.04 in 10.0 mi NNW 25.3 mph 32.2 mph N/A   Clear
9:53 AM 37.0 °F 26.2 °F 23.0 °F 57% 30.07 in 10.0 mi NNW 21.9 mph - N/A   Clear
10:53 AM 39.0 °F 29.6 °F 23.0 °F 53% 30.08 in 10.0 mi NNW 18.4 mph 27.6 mph N/A   Clear
11:53 AM 42.1 °F 34.2 °F 23.0 °F 47% 30.09 in 10.0 mi NW 16.1 mph 25.3 mph N/A   Clear
12:53 PM 44.1 °F 35.4 °F 19.9 °F 38% 30.06 in 10.0 mi NW 21.9 mph 28.8 mph N/A   Clear
1:53 PM 46.4 °F 39.0 °F 19.4 °F 34% 30.03 in 10.0 mi NW 19.6 mph 27.6 mph N/A   Clear
2:53 PM 46.9 °F - 15.1 °F 28% 30.04 in 10.0 mi NW 16.1 mph 28.8 mph N/A   Clear
3:53 PM 48.0 °F - 12.9 °F 24% 30.03 in 10.0 mi WNW 18.4 mph - N/A   Clear
4:53 PM 46.9 °F - 10.0 °F 22% 30.03 in 10.0 mi WNW 19.6 mph 28.8 mph N/A   Clear
5:53 PM 44.1 °F 39.0 °F 10.9 °F 26% 30.04 in 10.0 mi WNW 9.2 mph - N/A   Clear
6:53 PM 36.0 °F 31.1 °F 12.9 °F 39% 30.08 in 10.0 mi West 5.8 mph - N/A   Clear
7:53 PM 37.0 °F 33.3 °F 12.0 °F 36% 30.08 in 10.0 mi West 4.6 mph - N/A   Clear
8:53 PM 33.1 °F 26.9 °F 14.0 °F 46% 30.10 in 10.0 mi WSW 6.9 mph - N/A   Clear
9:53 PM 30.9 °F 22.2 °F 15.1 °F 52% 30.11 in 10.0 mi SW 10.4 mph - N/A   Clear
10:53 PM 30.9 °F 21.7 °F 16.0 °F 54% 30.09 in 10.0 mi SW 11.5 mph - N/A   Clear
11:53 PM 30.9 °F 21.7 °F 17.1 °F 57% 30.09 in 10.0 mi SSW 11.5 mph - N/A   Clear